• In Netherlands
  • List of Countries
  • For 7 days
  • Water Temperature
  • Satellite Maps
  • Weather Map
  • Weather Widgets
  • user-avatar
    Login

    Hourly Weather Luanda

    Today, 28 June, Wednesday

    Time Temperature Precipitation Wind Pressure Humidity
    00:00 +20°C° 0 mm 2 mps 756 mmHg 96%
    01:00 +20°C° 0 mm 2 mps 756 mmHg 96%
    02:00 +21°C° 0 mm 1 mps 756 mmHg 96%
    03:00 +21°C° 0 mm 1 mps 756 mmHg 96%
    04:00 +21°C° 0 mm 1 mps 756 mmHg 97%
    05:00 +21°C° 0 mm 1 mps 756 mmHg 94%
    06:00 +22°C° 0 mm 1 mps 756 mmHg 91%
    07:00 +23°C° 0 mm 1 mps 756 mmHg 88%
    08:00 +24°C° 0 mm 1 mps 756 mmHg 80%
    09:00 +26°C° 0 mm 1 mps 756 mmHg 72%
    10:00 +27°C° 0 mm 1 mps 756 mmHg 65%
    11:00 +29°C° 0 mm 2 mps 756 mmHg 56%
    12:00 +31°C° 0 mm 2 mps 755 mmHg 47%
    13:00 +35°C° 0 mm 3 mps 754 mmHg 39%
    14:00 +33°C° 0 mm 4 mps 754 mmHg 44%
    15:00 +32°C° 0 mm 4 mps 753 mmHg 49%
    16:00 +30°C° 0 mm 5 mps 753 mmHg 55%
    17:00 +28°C° 0 mm 5 mps 753 mmHg 63%
    18:00 +26°C° 0 mm 5 mps 753 mmHg 72%
    19:00 +23°C° 0 mm 5 mps 753 mmHg 81%
    20:00 +22°C° 0 mm 4 mps 754 mmHg 85%
    21:00 +21°C° 0 mm 3 mps 755 mmHg 90%
    22:00 +20°C° 0 mm 2 mps 756 mmHg 94%
    23:00 +20°C° 0 mm 2 mps 756 mmHg 94%

    Tomorrow, 29 June, Thursday

    Time Temperature Precipitation Wind Pressure Humidity
    00:00 +21°C° 0 mm 1 mps 756 mmHg 95%
    01:00 +22°C° 0 mm 1 mps 756 mmHg 95%
    02:00 +21°C° 0 mm 1 mps 756 mmHg 96%
    03:00 +21°C° 0 mm 1 mps 755 mmHg 97%
    04:00 +21°C° 0 mm 1 mps 755 mmHg 97%
    05:00 +20°C° 0 mm 2 mps 755 mmHg 96%
    06:00 +20°C° 0 mm 2 mps 755 mmHg 95%
    07:00 +20°C° 0 mm 2 mps 756 mmHg 94%
    08:00 +24°C° 0 mm 1 mps 756 mmHg 80%
    09:00 +28°C° 0 mm 1 mps 756 mmHg 65%
    10:00 +31°C° 0 mm 1 mps 757 mmHg 50%
    11:00 +32°C° 0 mm 2 mps 756 mmHg 46%
    12:00 +34°C° 0 mm 2 mps 755 mmHg 43%
    13:00 +35°C° 0 mm 3 mps 755 mmHg 39%
    14:00 +33°C° 0 mm 4 mps 754 mmHg 46%
    15:00 +32°C° 0 mm 5 mps 753 mmHg 52%
    16:00 +29°C° 0 mm 5 mps 753 mmHg 59%
    17:00 +28°C° 0 mm 5 mps 753 mmHg 67%
    18:00 +26°C° 0 mm 5 mps 754 mmHg 76%
    19:00 +23°C° 0 mm 5 mps 754 mmHg 85%
    20:00 +22°C° 0 mm 4 mps 755 mmHg 88%
    21:00 +21°C° 0 mm 4 mps 756 mmHg 91%
    22:00 +21°C° 0 mm 3 mps 756 mmHg 94%
    23:00 +20°C° 0 mm 2 mps 756 mmHg 95%

    Day after tomorrow, 30 June, Friday

    Time Temperature Precipitation Wind Pressure Humidity
    00:00 +20°C° 0 mm 2 mps 756 mmHg 95%
    01:00 +20°C° 0 mm 2 mps 756 mmHg 96%
    02:00 +20°C° 0 mm 2 mps 756 mmHg 96%
    03:00 +20°C° 0 mm 1 mps 756 mmHg 97%
    04:00 +20°C° 0 mm 1 mps 755 mmHg 97%
    05:00 +20°C° 0 mm 1 mps 756 mmHg 97%
    06:00 +21°C° 0 mm 1 mps 756 mmHg 96%
    07:00 +21°C° 0 mm 1 mps 756 mmHg 96%
    08:00 +24°C° 0 mm 1 mps 756 mmHg 80%
    09:00 +27°C° 0 mm 1 mps 757 mmHg 65%
    10:00 +31°C° 0 mm 1 mps 757 mmHg 49%
    11:00 +32°C° 0 mm 2 mps 756 mmHg 46%
    12:00 +34°C° 0 mm 3 mps 755 mmHg 42%
    13:00 +35°C° 0 mm 4 mps 755 mmHg 38%
    14:00 +33°C° 0 mm 4 mps 754 mmHg 44%
    15:00 +32°C° 0 mm 5 mps 753 mmHg 51%
    16:00 +29°C° 0 mm 5 mps 753 mmHg 57%
    17:00 +27°C° 0 mm 5 mps 753 mmHg 66%
    18:00 +25°C° 0 mm 5 mps 754 mmHg 75%
    19:00 +22°C° 0 mm 5 mps 754 mmHg 84%
    20:00 +21°C° 0 mm 4 mps 755 mmHg 88%
    21:00 +21°C° 0 mm 3 mps 755 mmHg 92%
    22:00 +20°C° 0 mm 3 mps 756 mmHg 95%
    23:00 +20°C° 0 mm 2 mps 756 mmHg 96%

    1 July, Saturday

    Time Temperature Precipitation Wind Pressure Humidity
    00:00 +20°C° 0 mm 2 mps 756 mmHg 97%
    01:00 +20°C° 0 mm 2 mps 756 mmHg 97%
    02:00 +21°C° 0 mm 1 mps 755 mmHg 97%
    03:00 +20°C° 0 mm 1 mps 755 mmHg 98%
    04:00 +20°C° 0 mm 1 mps 755 mmHg 98%
    05:00 +20°C° 0 mm 1 mps 755 mmHg 98%
    06:00 +20°C° 0 mm 1 mps 755 mmHg 98%
    07:00 +21°C° 0 mm 1 mps 756 mmHg 98%
    08:00 +22°C° 0 mm 0 mps 756 mmHg 83%
    09:00 +25°C° 0 mm 0 mps 756 mmHg 67%
    10:00 +28°C° 0 mm 0 mps 757 mmHg 52%
    11:00 +31°C° 0 mm 1 mps 756 mmHg 48%
    12:00 +32°C° 0 mm 2 mps 755 mmHg 44%
    13:00 +34°C° 0 mm 4 mps 754 mmHg 41%
    14:00 +32°C° 0 mm 4 mps 754 mmHg 47%
    15:00 +30°C° 0 mm 5 mps 753 mmHg 53%
    16:00 +29°C° 0 mm 5 mps 753 mmHg 59%
    17:00 +27°C° 0 mm 5 mps 753 mmHg 68%
    18:00 +25°C° 0 mm 4 mps 754 mmHg 77%
    19:00 +22°C° 0 mm 4 mps 755 mmHg 86%
    20:00 +21°C° 0 mm 3 mps 755 mmHg 89%
    21:00 +20°C° 0 mm 3 mps 756 mmHg 92%
    22:00 +20°C° 0 mm 2 mps 756 mmHg 96%
    23:00 +20°C° 0 mm 2 mps 756 mmHg 95%

    2 July, Sunday

    Time Temperature Precipitation Wind Pressure Humidity
    00:00 +21°C° 0 mm 1 mps 756 mmHg 94%
    01:00 +22°C° 0 mm 1 mps 755 mmHg 94%
    02:00 +22°C° 0 mm 1 mps 755 mmHg 93%
    03:00 +22°C° 0 mm 1 mps 755 mmHg 93%
    04:00 +19°C° 0 mm 0 mps 755 mmHg 93%
    05:00 +20°C° 0 mm 0 mps 755 mmHg 90%
    06:00 +20°C° 0 mm 0 mps 756 mmHg 87%
    07:00 +21°C° 0 mm 0 mps 756 mmHg 84%
    08:00 +25°C° 0 mm 1 mps 756 mmHg 74%
    09:00 +27°C° 0 mm 1 mps 756 mmHg 65%
    10:00 +29°C° 0 mm 1 mps 756 mmHg 55%
    11:00 +30°C° 0 mm 2 mps 755 mmHg 49%
    12:00 +33°C° 0 mm 3 mps 755 mmHg 43%
    13:00 +34°C° 0 mm 4 mps 754 mmHg 37%
    14:00 +33°C° 0 mm 4 mps 753 mmHg 44%
    15:00 +30°C° 0 mm 5 mps 753 mmHg 51%
    16:00 +28°C° 0 mm 6 mps 752 mmHg 59%
    17:00 +27°C° 0 mm 5 mps 753 mmHg 67%
    18:00 +25°C° 0 mm 5 mps 753 mmHg 76%
    19:00 +22°C° 0 mm 5 mps 754 mmHg 85%
    20:00 +22°C° 0 mm 4 mps 754 mmHg 88%
    21:00 +21°C° 0 mm 2 mps 755 mmHg 92%
    22:00 +21°C° 0 mm 1 mps 755 mmHg 95%
    23:00 +22°C° 0 mm 1 mps 755 mmHg 93%

    3 July, Monday

    Time Temperature Precipitation Wind Pressure Humidity
    00:00 +22°C° 0 mm 1 mps 755 mmHg 91%
    01:00 +23°C° 0 mm 1 mps 755 mmHg 88%
    02:00 +23°C° 0 mm 1 mps 755 mmHg 87%
    03:00 +23°C° 0 mm 1 mps 755 mmHg 85%
    04:00 +23°C° 0 mm 1 mps 755 mmHg 83%
    05:00 +23°C° 0 mm 1 mps 755 mmHg 83%
    06:00 +23°C° 0 mm 1 mps 755 mmHg 83%
    07:00 +23°C° 0 mm 1 mps 756 mmHg 82%
    08:00 +25°C° 0 mm 1 mps 756 mmHg 73%
    09:00 +27°C° 0 mm 2 mps 756 mmHg 63%
    10:00 +29°C° 0 mm 2 mps 756 mmHg 54%
    11:00 +30°C° 0 mm 3 mps 755 mmHg 49%
    12:00 +31°C° 0 mm 3 mps 755 mmHg 45%
    13:00 +34°C° 0 mm 4 mps 754 mmHg 41%
    14:00 +32°C° 0 mm 5 mps 753 mmHg 46%
    15:00 +30°C° 0 mm 5 mps 753 mmHg 52%
    16:00 +29°C° 0 mm 5 mps 752 mmHg 58%
    17:00 +27°C° 0 mm 5 mps 753 mmHg 66%
    18:00 +25°C° 0 mm 5 mps 753 mmHg 74%
    19:00 +22°C° 0 mm 5 mps 754 mmHg 82%
    20:00 +21°C° 0 mm 4 mps 754 mmHg 86%
    21:00 +21°C° 0 mm 3 mps 755 mmHg 91%
    22:00 +20°C° 0 mm 2 mps 755 mmHg 95%
    23:00 +20°C° 0 mm 2 mps 755 mmHg 94%
    Show more